TimeMDT,TemperatureF,Dew PointF,Humidity,Sea Level PressureIn,VisibilityMPH,Wind Direction,Wind SpeedMPH,Gust SpeedMPH,PrecipitationIn,Events,Conditions,WindDirDegrees,DateUTC
12:15 AM,26.6,19.4,74,30.16,10.0,WNW,3.5,-,N/A,,Scattered Clouds,300,2013-04-25 06:15:00
12:35 AM,24.8,19.4,80,30.16,10.0,NW,5.8,-,N/A,,Scattered Clouds,310,2013-04-25 06:35:00
12:55 AM,23.0,17.6,80,30.16,10.0,NNW,6.9,-,N/A,,Clear,330,2013-04-25 06:55:00
1:15 AM,21.2,19.4,93,30.16,10.0,NW,5.8,-,N/A,,Clear,310,2013-04-25 07:15:00
1:35 AM,21.2,19.4,93,30.16,10.0,WNW,5.8,-,N/A,,Mostly Cloudy,300,2013-04-25 07:35:00
1:55 AM,21.2,17.6,86,30.15,10.0,NW,5.8,-,N/A,,Mostly Cloudy,310,2013-04-25 07:55:00
2:15 AM,21.2,17.6,86,30.15,10.0,NNW,9.2,-,N/A,,Scattered Clouds,330,2013-04-25 08:15:00
2:35 AM,21.2,17.6,86,30.14,10.0,WNW,3.5,-,N/A,,Scattered Clouds,290,2013-04-25 08:35:00
2:55 AM,19.4,17.6,93,30.13,10.0,WNW,3.5,-,N/A,,Scattered Clouds,300,2013-04-25 08:55:00
3:15 AM,19.4,17.6,93,30.13,10.0,NW,3.5,-,N/A,,Clear,320,2013-04-25 09:15:00
3:35 AM,19.4,17.6,93,30.12,10.0,NNW,4.6,-,N/A,,Scattered Clouds,330,2013-04-25 09:35:00
3:55 AM,19.4,14.0,80,30.12,10.0,WNW,5.8,-,N/A,,Scattered Clouds,300,2013-04-25 09:55:00
4:15 AM,17.6,15.8,93,30.12,10.0,West,5.8,-,N/A,,Clear,280,2013-04-25 10:15:00
4:35 AM,17.6,15.8,93,30.11,10.0,Calm,Calm,-,N/A,,Clear,0,2013-04-25 10:35:00
4:55 AM,19.4,17.6,93,30.11,10.0,Calm,Calm,-,N/A,,Clear,0,2013-04-25 10:55:00
5:15 AM,17.6,15.8,93,30.11,10.0,WNW,5.8,-,N/A,,Clear,300,2013-04-25 11:15:00
5:35 AM,17.6,15.8,93,30.11,10.0,NW,5.8,-,N/A,,Clear,310,2013-04-25 11:35:00
5:55 AM,17.6,14.0,86,30.11,10.0,WNW,4.6,-,N/A,,Clear,300,2013-04-25 11:55:00
6:15 AM,17.6,14.0,86,30.12,10.0,NW,5.8,-,N/A,,Clear,310,2013-04-25 12:15:00
6:35 AM,17.6,14.0,86,30.12,10.0,NW,5.8,-,N/A,,Clear,310,2013-04-25 12:35:00
6:55 AM,17.6,14.0,86,30.11,10.0,WNW,5.8,-,N/A,,Scattered Clouds,290,2013-04-25 12:55:00
7:15 AM,17.6,15.8,93,30.11,10.0,WNW,4.6,-,N/A,,Scattered Clouds,290,2013-04-25 13:15:00
7:35 AM,21.2,17.6,86,30.11,10.0,West,4.6,-,N/A,,Clear,270,2013-04-25 13:35:00
7:55 AM,23.0,19.4,86,30.11,10.0,West,5.8,-,N/A,,Clear,280,2013-04-25 13:55:00
8:15 AM,26.6,19.4,74,30.11,10.0,West,3.5,-,N/A,,Clear,260,2013-04-25 14:15:00
8:35 AM,30.2,17.6,60,30.11,10.0,NW,3.5,-,N/A,,Clear,310,2013-04-25 14:35:00
8:55 AM,32.0,15.8,51,30.11,10.0,Calm,Calm,-,N/A,,Clear,0,2013-04-25 14:55:00
9:15 AM,33.8,14.0,44,30.10,10.0,Calm,Calm,-,N/A,,Clear,0,2013-04-25 15:15:00
9:35 AM,37.4,14.0,38,30.09,10.0,Calm,Calm,-,N/A,,Clear,0,2013-04-25 15:35:00
9:55 AM,39.2,14.0,36,30.09,10.0,Calm,Calm,-,N/A,,Clear,0,2013-04-25 15:55:00
10:15 AM,41.0,12.2,31,30.09,10.0,Calm,Calm,-,N/A,,Clear,0,2013-04-25 16:15:00
10:35 AM,42.8,10.4,27,30.08,10.0,Calm,Calm,-,N/A,,Clear,0,2013-04-25 16:35:00
10:55 AM,42.8,10.4,27,30.08,10.0,North,4.6,-,N/A,,Clear,350,2013-04-25 16:55:00
11:15 AM,42.8,10.4,27,30.08,10.0,NNW,5.8,-,N/A,,Clear,340,2013-04-25 17:15:00
11:35 AM,44.6,12.2,27,30.08,10.0,WNW,11.5,-,N/A,,Clear,300,2013-04-25 17:35:00
11:55 AM,44.6,8.6,23,30.07,10.0,NW,9.2,-,N/A,,Clear,310,2013-04-25 17:55:00
12:15 PM,44.6,12.2,27,30.06,10.0,NW,10.4,-,N/A,,Clear,320,2013-04-25 18:15:00
12:35 PM,44.6,10.4,25,30.06,10.0,WNW,6.9,17.3,N/A,,Clear,300,2013-04-25 18:35:00
12:55 PM,46.4,10.4,23,30.05,10.0,NW,5.8,9.2,N/A,,Clear,310,2013-04-25 18:55:00
1:15 PM,46.4,12.2,25,30.04,10.0,WNW,10.4,-,N/A,,Clear,290,2013-04-25 19:15:00
1:35 PM,46.4,10.4,23,30.04,10.0,WNW,8.1,-,N/A,,Clear,290,2013-04-25 19:35:00
1:55 PM,46.4,12.2,25,30.03,10.0,WNW,8.1,-,N/A,,Clear,300,2013-04-25 19:55:00
2:15 PM,46.4,10.4,23,30.03,10.0,West,6.9,-,N/A,,Clear,280,2013-04-25 20:15:00
2:35 PM,46.4,10.4,23,30.03,10.0,WNW,8.1,-,N/A,,Clear,290,2013-04-25 20:35:00
2:55 PM,48.2,12.2,24,30.02,10.0,West,6.9,-,N/A,,Clear,260,2013-04-25 20:55:00
3:15 PM,48.2,10.4,22,30.01,10.0,Calm,Calm,-,N/A,,Clear,0,2013-04-25 21:15:00
3:35 PM,51.8,8.6,18,30.01,10.0,NW,13.8,21.9,N/A,,Clear,310,2013-04-25 21:35:00
3:55 PM,51.8,8.6,18,30.00,10.0,WNW,17.3,23.0,N/A,,Clear,290,2013-04-25 21:55:00
4:15 PM,51.8,8.6,18,30.00,10.0,WNW,17.3,21.9,N/A,,Clear,300,2013-04-25 22:15:00
4:35 PM,51.8,8.6,18,30.00,10.0,WNW,19.6,26.5,N/A,,Clear,290,2013-04-25 22:35:00
4:55 PM,51.8,8.6,18,30.00,10.0,West,15.0,25.3,N/A,,Clear,270,2013-04-25 22:55:00
5:15 PM,51.8,8.6,18,30.00,10.0,West,16.1,24.2,N/A,,Clear,280,2013-04-25 23:15:00
5:35 PM,50.0,8.6,19,30.01,10.0,WNW,12.7,25.3,N/A,,Clear,290,2013-04-25 23:35:00
5:55 PM,50.0,8.6,19,30.01,10.0,WNW,20.7,27.6,N/A,,Clear,290,2013-04-25 23:55:00
6:15 PM,50.0,10.4,20,30.02,10.0,WNW,18.4,26.5,N/A,,Clear,300,2013-04-26 00:15:00
6:35 PM,50.0,10.4,20,30.03,10.0,West,15.0,25.3,N/A,,Clear,280,2013-04-26 00:35:00
6:55 PM,50.0,10.4,20,30.03,10.0,West,16.1,21.9,N/A,,Clear,280,2013-04-26 00:55:00
7:15 PM,48.2,12.2,24,30.03,10.0,WNW,10.4,-,N/A,,Clear,290,2013-04-26 01:15:00
7:35 PM,46.4,12.2,25,30.04,10.0,West,9.2,-,N/A,,Clear,280,2013-04-26 01:35:00
7:55 PM,44.6,14.0,29,30.05,10.0,West,10.4,-,N/A,,Clear,280,2013-04-26 01:55:00
8:15 PM,41.0,15.8,36,30.05,10.0,West,8.1,-,N/A,,Clear,280,2013-04-26 02:15:00
8:35 PM,39.2,14.0,36,30.07,10.0,West,8.1,-,N/A,,Clear,280,2013-04-26 02:35:00
8:55 PM,37.4,15.8,41,30.08,10.0,WNW,6.9,-,N/A,,Scattered Clouds,300,2013-04-26 02:55:00
9:15 PM,32.0,17.6,55,30.09,10.0,NW,6.9,-,N/A,,Scattered Clouds,320,2013-04-26 03:15:00
9:35 PM,32.0,17.6,55,30.11,10.0,NW,9.2,-,N/A,,Clear,310,2013-04-26 03:35:00
9:55 PM,32.0,17.6,55,30.11,10.0,WNW,9.2,-,N/A,,Clear,290,2013-04-26 03:55:00
10:15 PM,30.2,17.6,60,30.13,10.0,West,6.9,-,N/A,,Scattered Clouds,270,2013-04-26 04:15:00
10:35 PM,30.2,17.6,60,30.13,10.0,West,5.8,-,N/A,,Scattered Clouds,270,2013-04-26 04:35:00
10:55 PM,28.4,19.4,69,30.13,10.0,NW,4.6,-,N/A,,Scattered Clouds,310,2013-04-26 04:55:00
11:15 PM,30.2,17.6,60,30.13,10.0,NNW,5.8,-,N/A,,Clear,340,2013-04-26 05:15:00
11:35 PM,30.2,17.6,60,30.14,10.0,NW,5.8,-,N/A,,Clear,320,2013-04-26 05:35:00
11:55 PM,28.4,17.6,64,30.14,10.0,West,9.2,-,N/A,,Clear,270,2013-04-26 05:55:00